Weather in Tychy

Poland     50°07′22″N   18°59′07″E
temp.,
°C
wind,
m/s
gust,
m/s
humid.,
%
clouds,
%
prec.,
mm/h
press.,
hPa
HPBL,
m
18 april, sun
sun1823:00+3n0199100 0.0 1021205
02:00+3nne0199100 0.1 1020111
05:00+3sse0198100 0.1 1020101
08:00+3e1298100 0.1 1020349
11:00+5ene3495100 0.0 1020388
14:00+7e3475100 0.1 1019846
17:00+8ene3576100 0.0 1019623
20:00+6ene3786100 0.0 1019230
19 april, mon
mon1923:00+6ene2588100 0.0 1019125
02:00+6ne2288100 0.0 101951
05:00+5ene2290100 0.0 101829
08:00+7ne258397 0.0 1018255
11:00+7ene3593100 2.4 1017416
14:00+9e4680100 2.6 1017759
17:00+11e4672100 0.1 1015901
20:00+8ene2386100 0.3 101572
20 april, tue
tue2023:00+8e3891100 0.3 1015420
02:00+6ne259384 0.5 1015129
05:00+6ene2391100 0.1 101582
08:00+7ene2486100 0.1 1015211
11:00+10ene2371100 0.3 1015790
14:00+10ene3368100 0.9 1014939
17:00+11e336990 0.2 1014849
20:00+8ese118140 0.2 101410
21 april, wed
wed2123:00+6s008587 0.0 101511
02:00+7sw228565 0.1 101458
05:00+6sw248883 0.0 1015121
08:00+8wsw238170 0.1 1015311
11:00+12w236326 0.7 10141068
14:00+14w344633 1.1 10131918
17:00+15wsw444899 0.0 10121727
20:00+9wsw3984100 0.6 1013187
22 april, thu
thu2223:00+8sw228455 0.1 101635
02:00+6sw248812 0.1 101672
05:00+5w249288 0.0 101784
08:00+6wnw3695100 2.6 1018467
11:00+2wnw2498100 1.5 1021261
14:00+5sw1386100 1.9 1020525
17:00+8sw246798 0.0 1020789
20:00+5nw117954 0.3 102027